Regional Weather Roundup
Issued by NWS

Home | Current Version | Previous Version | Text Only | Print | Product List | Glossary Off
Versions: 1 2 3 4 5 6 7 8 9 10 11 12 13 14 15 16 17 18 19 20 21 22 23 24 25 26 27 28 29 30 31 32 33 34 35 36 37 38 39 40 41 42 43 44 45 46 47 48 49 50

000
ASUS45 KBOI 060810
RWRID

IDAHO REGIONAL WEATHER ROUNDUP
NATIONAL WEATHER SERVICE BOISE ID
200 AM MDT MON JUL 06 2015

NOTE: "FAIR" INDICATES FEW OR NO CLOUDS BELOW 12000 FEET
WITH NO SIGNIFICANT WEATHER AND/OR OBSTRUCTIONS TO VISIBILITY

IDZ012-014-060900-
SOUTHWEST IDAHO


CITY           SKY/WX    TMP DP  RH WIND       PRES   REMARKS
BOISE          MOCLDY    71  55  56 SE5       29.99R
CALDWELL       MOCLDY    64  52  63 SE5       29.98S
MOUNTAIN HOME  CLOUDY    70  49  47 S1        29.99S
$$

IDZ016-017-060900-
SOUTHCENTRAL IDAHO


CITY           SKY/WX    TMP DP  RH WIND       PRES   REMARKS
BURLEY         MOCLDY    62  56  80 S5        30.07R
JEROME         MOCLDY    65  53  65 S7        30.07R
TWIN FALLS     CLOUDY    70  51  51 S12       30.05R
$$

IDZ019>023-060900-
SOUTHEAST IDAHO


CITY           SKY/WX    TMP DP  RH WIND       PRES   REMARKS
IDAHO FALLS    CLOUDY    64  55  72 E6        30.11R
POCATELLO      CLOUDY    69  50  50 SW9       30.10R
REXBURG        CLOUDY    63  49  60 E7        30.14R
$$

IDZ006-010-011-018-031-032-060900-
CENTRAL IDAHO MOUNTAINS


CITY           SKY/WX    TMP DP  RH WIND       PRES   REMARKS
MCCALL         CLEAR     58  51  78 CALM      30.12R
HAILEY         CLOUDY    63  43  48 NW10      30.13S
STANLEY          N/A     50  43  77 SE3       30.25R
SALMON         PTCLDY    63  52  67 CALM      30.09R
CHALLIS        CLOUDY    63  43  48 CALM      30.12R
$$

IDZ002-004-006-007-026-060900-
NORTHERN IDAHO


CITY           SKY/WX    TMP DP  RH WIND       PRES   REMARKS
LEWISTON       CLEAR     78  51  38 E7        29.93R
LOWELL           N/A     71  57  61 S5        29.96R
COEUR D`ALENE  CLEAR     63  39  42 N12       30.05R
MULLAN PASS    CLEAR     48  40  73 SE9       30.21F
$$



USA.gov is the U.S. government's official web portal to all federal, state and local government web resources and services.